Wetterdaten: Donnerstag, 30.04.2015
Datum Zeit Auen-Temp. Temp gefhlt Luftfeuchte Luftdruck Regen Wind Richtung Richtung Taupunkt Windben
30.04.2015 00:03 6,8 C 6,4 C 76 % 1014,8 hPa 0,0 mm 9,3 km/h (2 Bft) S-SW 202 2,9 C 9,8 km/h (2 Bft)
30.04.2015 00:05 6,8 C 6,4 C 76 % 1014,8 hPa 0,0 mm 9,3 km/h (2 Bft) S-SW 202 2,9 C 9,8 km/h (2 Bft)
30.04.2015 00:10 6,8 C 6,4 C 76 % 1014,8 hPa 0,0 mm 9,3 km/h (2 Bft) S-SW 202 2,9 C 9,8 km/h (2 Bft)
30.04.2015 00:15 6,9 C 6,7 C 75 % 1014,8 hPa 0,0 mm 7,3 km/h (2 Bft) S-SO 157 2,8 C 3,4 km/h (1 Bft)
30.04.2015 00:20 6,9 C 6,8 C 75 % 1014,8 hPa 0,0 mm 5,4 km/h (1 Bft) S-SW 202 2,8 C 5,4 km/h (1 Bft)
30.04.2015 00:21 7,0 C 6,9 C 74 % 1014,8 hPa 0,0 mm 4,7 km/h (1 Bft) S-SW 202 2,7 C 6,0 km/h (2 Bft)
30.04.2015 00:26 6,3 C 6,5 C 73 % 1014,8 hPa 0,0 mm 2,8 km/h (1 Bft) W 270 1,8 C 0,0 km/h (0 Bft)
30.04.2015 00:31 5,8 C 6,1 C 75 % 1014,8 hPa 0,0 mm 1,3 km/h (1 Bft) W 270 1,7 C 0,0 km/h (0 Bft)
30.04.2015 00:36 6,4 C 6,2 C 76 % 1014,9 hPa 0,0 mm 1,0 km/h (0 Bft) S 180 2,5 C 5,7 km/h (1 Bft)
30.04.2015 00:41 6,9 C 6,7 C 75 % 1014,9 hPa 0,0 mm 3,4 km/h (1 Bft) SW 225 2,8 C 7,8 km/h (2 Bft)
30.04.2015 00:46 6,8 C 6,7 C 75 % 1014,9 hPa 0,0 mm 3,4 km/h (1 Bft) SO 135 2,7 C 0,0 km/h (0 Bft)
30.04.2015 00:51 6,8 C 6,7 C 75 % 1014,9 hPa 0,0 mm 1,6 km/h (1 Bft) SW 225 2,7 C 0,0 km/h (0 Bft)
30.04.2015 00:56 6,4 C 6,6 C 75 % 1015,1 hPa 0,0 mm 1,0 km/h (0 Bft) W-SW 247 2,3 C 0,0 km/h (0 Bft)
30.04.2015 01:01 5,5 C 6,2 C 75 % 1015,1 hPa 0,0 mm 1,0 km/h (0 Bft) S 180 1,4 C 0,0 km/h (0 Bft)
30.04.2015 01:06 5,3 C 6,0 C 76 % 1015,1 hPa 0,0 mm 0,0 km/h (0 Bft) S 180 1,4 C 0,0 km/h (0 Bft)
30.04.2015 01:11 5,2 C 5,8 C 76 % 1015,1 hPa 0,0 mm 0,0 km/h (0 Bft) W 270 1,3 C 0,0 km/h (0 Bft)
30.04.2015 01:16 5,7 C 5,7 C 76 % 1014,9 hPa 0,0 mm 1,6 km/h (1 Bft) S 180 1,8 C 10,1 km/h (2 Bft)
30.04.2015 01:21 6,8 C 6,7 C 76 % 1014,9 hPa 0,0 mm 6,2 km/h (2 Bft) S 180 2,9 C 9,8 km/h (2 Bft)
30.04.2015 01:26 7,0 C 7,0 C 75 % 1014,9 hPa 0,0 mm 8,5 km/h (2 Bft) S 180 2,9 C 8,0 km/h (2 Bft)
30.04.2015 01:31 7,4 C 7,2 C 74 % 1014,9 hPa 0,0 mm 8,5 km/h (2 Bft) S 180 3,1 C 9,6 km/h (2 Bft)
30.04.2015 01:36 7,5 C 7,4 C 73 % 1014,9 hPa 0,0 mm 8,5 km/h (2 Bft) S 180 3,0 C 13,2 km/h (3 Bft)
30.04.2015 01:41 7,8 C 7,6 C 72 % 1014,9 hPa 0,0 mm 8,5 km/h (2 Bft) S 180 3,1 C 7,8 km/h (2 Bft)
30.04.2015 01:46 7,8 C 7,6 C 71 % 1014,9 hPa 0,0 mm 8,5 km/h (2 Bft) SW 225 2,9 C 9,8 km/h (2 Bft)
30.04.2015 01:51 7,9 C 7,7 C 70 % 1014,9 hPa 0,0 mm 8,3 km/h (2 Bft) S 180 2,8 C 9,3 km/h (2 Bft)
30.04.2015 01:56 8,0 C 7,8 C 70 % 1014,8 hPa 0,0 mm 7,5 km/h (2 Bft) NW 315 2,9 C 7,3 km/h (2 Bft)
30.04.2015 02:01 8,1 C 8,0 C 70 % 1014,8 hPa 0,0 mm 6,5 km/h (2 Bft) W-SW 247 3,0 C 8,0 km/h (2 Bft)
30.04.2015 02:06 8,1 C 8,1 C 70 % 1014,8 hPa 0,0 mm 5,7 km/h (1 Bft) S 180 3,0 C 7,8 km/h (2 Bft)
30.04.2015 02:09 8,1 C 8,1 C 70 % 1014,8 hPa 0,0 mm 5,7 km/h (1 Bft) S 180 3,0 C 7,8 km/h (2 Bft)
30.04.2015 02:11 8,1 C 8,1 C 69 % 1014,8 hPa 0,0 mm 5,4 km/h (1 Bft) S-SW 202 2,8 C 9,1 km/h (2 Bft)
30.04.2015 02:16 8,1 C 8,0 C 69 % 1014,9 hPa 0,0 mm 6,5 km/h (2 Bft) SW 225 2,8 C 8,8 km/h (2 Bft)
30.04.2015 02:21 8,1 C 8,0 C 69 % 1014,9 hPa 0,0 mm 6,5 km/h (2 Bft) SW 225 2,8 C 8,8 km/h (2 Bft)
30.04.2015 02:25 8,1 C 8,0 C 69 % 1014,9 hPa 0,0 mm 7,3 km/h (2 Bft) S 180 2,8 C 8,5 km/h (2 Bft)
30.04.2015 02:30 8,1 C 8,0 C 69 % 1014,9 hPa 0,0 mm 7,5 km/h (2 Bft) S 180 2,8 C 5,4 km/h (1 Bft)
30.04.2015 02:31 8,1 C 8,0 C 69 % 1014,9 hPa 0,0 mm 7,3 km/h (2 Bft) SW 225 2,8 C 6,2 km/h (2 Bft)
30.04.2015 02:36 8,1 C 8,0 C 69 % 1014,9 hPa 0,0 mm 7,3 km/h (2 Bft) SW 225 2,8 C 6,2 km/h (2 Bft)
30.04.2015 02:39 8,0 C 8,0 C 69 % 1014,8 hPa 0,0 mm 5,4 km/h (1 Bft) SW 225 2,7 C 5,2 km/h (1 Bft)
30.04.2015 02:45 8,1 C 8,1 C 69 % 1014,8 hPa 0,0 mm 5,2 km/h (1 Bft) SW 225 2,8 C 7,8 km/h (2 Bft)
30.04.2015 02:50 8,0 C 8,0 C 69 % 1014,8 hPa 0,0 mm 5,2 km/h (1 Bft) S 180 2,7 C 6,7 km/h (2 Bft)
30.04.2015 02:55 8,0 C 8,0 C 69 % 1014,8 hPa 0,0 mm 4,7 km/h (1 Bft) S 180 2,7 C 4,1 km/h (1 Bft)
30.04.2015 03:00 8,1 C 8,1 C 69 % 1014,8 hPa 0,0 mm 5,2 km/h (1 Bft) W-SW 247 2,8 C 6,2 km/h (2 Bft)
30.04.2015 03:05 8,0 C 8,0 C 70 % 1014,8 hPa 0,0 mm 5,2 km/h (1 Bft) W-SW 247 2,9 C 7,5 km/h (2 Bft)
30.04.2015 03:10 8,0 C 8,0 C 70 % 1014,8 hPa 0,0 mm 5,2 km/h (1 Bft) W-SW 247 2,9 C 6,5 km/h (2 Bft)
30.04.2015 03:15 8,0 C 7,9 C 70 % 1014,8 hPa 0,0 mm 4,9 km/h (1 Bft) S 180 2,9 C 7,0 km/h (2 Bft)
30.04.2015 03:20 8,0 C 7,8 C 70 % 1014,8 hPa 0,0 mm 4,1 km/h (1 Bft) W 270 2,9 C 0,0 km/h (0 Bft)
30.04.2015 03:25 7,9 C 7,7 C 70 % 1014,8 hPa 0,0 mm 3,4 km/h (1 Bft) SW 225 2,8 C 4,4 km/h (1 Bft)
30.04.2015 03:30 7,9 C 7,8 C 70 % 1014,8 hPa 0,0 mm 2,3 km/h (1 Bft) W-SW 247 2,8 C 0,0 km/h (0 Bft)
30.04.2015 03:35 7,8 C 7,7 C 70 % 1014,8 hPa 0,0 mm 2,3 km/h (1 Bft) SW 225 2,7 C 4,4 km/h (1 Bft)
30.04.2015 03:40 7,8 C 7,5 C 71 % 1014,9 hPa 0,0 mm 2,6 km/h (1 Bft) W-SW 247 2,9 C 3,4 km/h (1 Bft)
30.04.2015 03:45 7,8 C 7,5 C 72 % 1014,9 hPa 0,0 mm 4,4 km/h (1 Bft) S 180 3,1 C 8,0 km/h (2 Bft)
30.04.2015 03:50 7,8 C 7,4 C 73 % 1014,9 hPa 0,0 mm 5,7 km/h (1 Bft) W-SW 247 3,3 C 7,0 km/h (2 Bft)
30.04.2015 03:55 7,7 C 7,3 C 73 % 1014,9 hPa 0,0 mm 6,0 km/h (2 Bft) S-SW 202 3,2 C 25,1 km/h (4 Bft)
30.04.2015 04:00 7,6 C 7,2 C 74 % 1015,1 hPa 0,0 mm 6,7 km/h (2 Bft) W-SW 247 3,3 C 6,7 km/h (2 Bft)
30.04.2015 04:05 7,4 C 7,0 C 74 % 1015,1 hPa 0,0 mm 6,7 km/h (2 Bft) SW 225 3,1 C 10,9 km/h (2 Bft)
30.04.2015 04:10 7,4 C 6,9 C 74 % 1015,1 hPa 0,0 mm 6,7 km/h (2 Bft) SW 225 3,1 C 9,8 km/h (2 Bft)
30.04.2015 04:15 7,5 C 6,9 C 73 % 1015,1 hPa 0,0 mm 7,8 km/h (2 Bft) S 180 3,0 C 14,2 km/h (3 Bft)
30.04.2015 04:20 7,4 C 6,6 C 72 % 1015,1 hPa 0,0 mm 9,8 km/h (2 Bft) S 180 2,7 C 11,4 km/h (2 Bft)
30.04.2015 04:25 7,3 C 6,6 C 72 % 1015,1 hPa 0,0 mm 9,3 km/h (2 Bft) S 180 2,6 C 9,3 km/h (2 Bft)
30.04.2015 04:30 7,3 C 6,7 C 73 % 1015,1 hPa 0,0 mm 7,5 km/h (2 Bft) W-SW 247 2,8 C 6,7 km/h (2 Bft)
30.04.2015 04:35 7,2 C 6,8 C 73 % 1015,1 hPa 0,0 mm 6,0 km/h (2 Bft) S-SW 202 2,7 C 7,8 km/h (2 Bft)
30.04.2015 04:40 7,1 C 6,7 C 74 % 1015,1 hPa 0,0 mm 6,2 km/h (2 Bft) N-NW 337 2,8 C 9,3 km/h (2 Bft)
30.04.2015 04:45 6,9 C 6,4 C 75 % 1015,1 hPa 0,0 mm 7,0 km/h (2 Bft) S 180 2,8 C 6,0 km/h (2 Bft)
30.04.2015 04:50 6,7 C 6,4 C 76 % 1015,1 hPa 0,0 mm 4,7 km/h (1 Bft) S 180 2,8 C 10,4 km/h (2 Bft)
30.04.2015 04:55 6,6 C 6,3 C 78 % 1015,1 hPa 0,0 mm 4,1 km/h (1 Bft) S 180 3,0 C 7,8 km/h (2 Bft)
30.04.2015 05:00 6,7 C 6,3 C 79 % 1015,2 hPa 0,0 mm 6,2 km/h (2 Bft) S-SW 202 3,3 C 3,4 km/h (1 Bft)
30.04.2015 05:05 6,7 C 6,1 C 78 % 1015,2 hPa 0,0 mm 7,5 km/h (2 Bft) W-SW 247 3,1 C 7,5 km/h (2 Bft)
30.04.2015 05:10 6,8 C 6,4 C 78 % 1015,2 hPa 0,0 mm 6,0 km/h (2 Bft) W-SW 247 3,2 C 9,3 km/h (2 Bft)
30.04.2015 05:15 6,8 C 6,4 C 78 % 1015,2 hPa 0,0 mm 6,2 km/h (2 Bft) W-SW 247 3,2 C 5,7 km/h (1 Bft)
30.04.2015 05:20 6,9 C 6,4 C 77 % 1015,3 hPa 0,0 mm 7,5 km/h (2 Bft) SW 225 3,2 C 19,2 km/h (3 Bft)
30.04.2015 05:25 6,9 C 6,3 C 76 % 1015,3 hPa 0,0 mm 8,0 km/h (2 Bft) W-SW 247 3,0 C 12,4 km/h (3 Bft)
30.04.2015 05:30 6,9 C 6,3 C 76 % 1015,3 hPa 0,0 mm 8,0 km/h (2 Bft) W 270 3,0 C 10,9 km/h (2 Bft)
30.04.2015 05:35 6,8 C 6,2 C 76 % 1015,3 hPa 0,0 mm 7,3 km/h (2 Bft) S 180 2,9 C 19,2 km/h (3 Bft)
30.04.2015 05:40 6,6 C 6,1 C 76 % 1015,4 hPa 0,0 mm 6,7 km/h (2 Bft) S 180 2,7 C 7,0 km/h (2 Bft)
30.04.2015 05:45 6,5 C 6,0 C 77 % 1015,4 hPa 0,7 mm 7,0 km/h (2 Bft) SW 225 2,8 C 12,7 km/h (3 Bft)
30.04.2015 05:50 6,4 C 5,8 C 78 % 1015,4 hPa 0,0 mm 7,5 km/h (2 Bft) W-SW 247 2,8 C 4,7 km/h (1 Bft)
30.04.2015 05:55 6,3 C 5,9 C 77 % 1015,4 hPa 0,0 mm 5,7 km/h (1 Bft) W-SW 247 2,6 C 4,7 km/h (1 Bft)
30.04.2015 06:00 6,2 C 5,7 C 79 % 1015,8 hPa 0,0 mm 6,5 km/h (2 Bft) S 180 2,8 C 6,5 km/h (2 Bft)
30.04.2015 06:05 6,1 C 5,6 C 80 % 1015,8 hPa 0,0 mm 7,5 km/h (2 Bft) W-SW 247 2,9 C 13,2 km/h (3 Bft)
30.04.2015 06:10 6,0 C 5,7 C 80 % 1015,8 hPa 0,0 mm 5,2 km/h (1 Bft) W-SW 247 2,8 C 6,5 km/h (2 Bft)
30.04.2015 06:15 5,9 C 5,7 C 81 % 1015,8 hPa 0,7 mm 4,7 km/h (1 Bft) SW 225 2,9 C 6,2 km/h (2 Bft)
30.04.2015 06:20 5,8 C 5,6 C 81 % 1015,9 hPa 0,0 mm 4,7 km/h (1 Bft) SW 225 2,8 C 6,7 km/h (2 Bft)
30.04.2015 06:25 5,8 C 5,4 C 82 % 1015,9 hPa 0,0 mm 6,2 km/h (2 Bft) SW 225 3,0 C 10,6 km/h (2 Bft)
30.04.2015 06:30 5,8 C 5,3 C 82 % 1015,9 hPa 0,0 mm 7,0 km/h (2 Bft) S-SW 202 3,0 C 7,8 km/h (2 Bft)
30.04.2015 06:35 5,7 C 5,2 C 82 % 1015,9 hPa 0,7 mm 7,5 km/h (2 Bft) W-SW 247 2,9 C 7,3 km/h (2 Bft)
30.04.2015 06:40 5,7 C 5,2 C 83 % 1015,8 hPa 0,0 mm 7,0 km/h (2 Bft) W-SW 247 3,0 C 9,3 km/h (2 Bft)
30.04.2015 06:45 5,7 C 5,2 C 83 % 1015,8 hPa 0,0 mm 7,3 km/h (2 Bft) S 180 3,0 C 3,9 km/h (1 Bft)
30.04.2015 06:50 5,7 C 5,4 C 84 % 1015,8 hPa 0,0 mm 6,0 km/h (2 Bft) S 180 3,2 C 10,6 km/h (2 Bft)
30.04.2015 06:55 5,7 C 5,4 C 84 % 1015,8 hPa 0,0 mm 4,9 km/h (1 Bft) SW 225 3,2 C 8,8 km/h (2 Bft)
30.04.2015 07:00 5,7 C 5,5 C 84 % 1015,9 hPa 0,0 mm 3,9 km/h (1 Bft) SO 135 3,2 C 0,0 km/h (0 Bft)
30.04.2015 07:05 5,7 C 5,5 C 84 % 1015,9 hPa 0,0 mm 1,3 km/h (1 Bft) N-NW 337 3,2 C 0,0 km/h (0 Bft)
30.04.2015 07:10 5,7 C 5,5 C 84 % 1015,9 hPa 0,0 mm 0,5 km/h (0 Bft) NO 45 3,2 C 0,0 km/h (0 Bft)
30.04.2015 07:15 5,7 C 5,5 C 85 % 1015,9 hPa 0,0 mm 0,5 km/h (0 Bft) W 270 3,4 C 2,6 km/h (1 Bft)
30.04.2015 07:20 5,8 C 5,6 C 85 % 1016,1 hPa 0,0 mm 1,6 km/h (1 Bft) W-NW 292 3,5 C 0,0 km/h (0 Bft)
30.04.2015 07:25 5,8 C 5,6 C 85 % 1016,1 hPa 0,0 mm 1,0 km/h (0 Bft) O 90 3,5 C 0,0 km/h (0 Bft)
30.04.2015 07:30 5,8 C 5,6 C 85 % 1016,1 hPa 0,0 mm 0,0 km/h (0 Bft) O-SO 112 3,5 C 0,0 km/h (0 Bft)
30.04.2015 07:35 5,8 C 5,7 C 81 % 1016,1 hPa 0,0 mm 0,0 km/h (0 Bft) W 270 2,8 C 0,0 km/h (0 Bft)
30.04.2015 07:40 5,8 C 5,8 C 81 % 1016,1 hPa 0,0 mm 0,0 km/h (0 Bft) O-NO 67 2,8 C 0,0 km/h (0 Bft)
30.04.2015 07:45 5,9 C 5,9 C 82 % 1016,1 hPa 0,0 mm 0,0 km/h (0 Bft) W 270 3,1 C 0,0 km/h (0 Bft)
30.04.2015 07:50 5,9 C 5,9 C 82 % 1016,1 hPa 0,0 mm 0,8 km/h (0 Bft) S 180 3,1 C 0,0 km/h (0 Bft)
30.04.2015 07:55 6,0 C 6,0 C 81 % 1016,1 hPa 0,0 mm 1,0 km/h (0 Bft) W-SW 247 3,0 C 4,9 km/h (1 Bft)
30.04.2015 08:00 6,0 C 6,1 C 81 % 1016,2 hPa 0,0 mm 1,6 km/h (1 Bft) W-SW 247 3,0 C 4,9 km/h (1 Bft)
30.04.2015 08:05 6,2 C 6,2 C 80 % 1016,2 hPa 0,0 mm 2,3 km/h (1 Bft) W-SW 247 3,0 C 5,4 km/h (1 Bft)
30.04.2015 08:10 6,2 C 6,2 C 80 % 1016,2 hPa 0,0 mm 3,1 km/h (1 Bft) SW 225 3,0 C 7,8 km/h (2 Bft)
30.04.2015 08:15 6,4 C 6,3 C 80 % 1016,2 hPa 0,0 mm 3,4 km/h (1 Bft) W-NW 292 3,2 C 8,5 km/h (2 Bft)
30.04.2015 08:20 6,5 C 6,5 C 80 % 1016,2 hPa 0,0 mm 4,7 km/h (1 Bft) S-SW 202 3,3 C 6,7 km/h (2 Bft)
30.04.2015 08:25 6,6 C 6,5 C 80 % 1016,2 hPa 0,0 mm 5,7 km/h (1 Bft) SW 225 3,4 C 5,4 km/h (1 Bft)
30.04.2015 08:30 6,6 C 6,6 C 80 % 1016,2 hPa 0,0 mm 5,4 km/h (1 Bft) S 180 3,4 C 8,3 km/h (2 Bft)
30.04.2015 08:35 6,7 C 6,7 C 80 % 1016,2 hPa 0,0 mm 4,1 km/h (1 Bft) S 180 3,5 C 3,1 km/h (1 Bft)
30.04.2015 08:40 6,7 C 7,0 C 80 % 1016,2 hPa 0,0 mm 3,1 km/h (1 Bft) W-SW 247 3,5 C 6,2 km/h (2 Bft)
30.04.2015 08:45 6,9 C 7,1 C 79 % 1016,2 hPa 0,0 mm 4,4 km/h (1 Bft) SW 225 3,5 C 6,5 km/h (2 Bft)
30.04.2015 08:50 7,0 C 7,3 C 79 % 1016,2 hPa 0,0 mm 5,7 km/h (1 Bft) SW 225 3,6 C 4,9 km/h (1 Bft)
30.04.2015 08:55 7,1 C 7,4 C 79 % 1016,2 hPa 0,0 mm 5,7 km/h (1 Bft) W-SW 247 3,7 C 4,1 km/h (1 Bft)
30.04.2015 09:00 7,2 C 7,6 C 78 % 1016,2 hPa 0,0 mm 4,9 km/h (1 Bft) SW 225 3,6 C 4,1 km/h (1 Bft)
30.04.2015 09:05 7,3 C 7,7 C 78 % 1016,2 hPa 0,0 mm 5,7 km/h (1 Bft) W 270 3,7 C 5,4 km/h (1 Bft)
30.04.2015 09:10 7,3 C 7,8 C 78 % 1016,2 hPa 0,0 mm 5,7 km/h (1 Bft) S 180 3,7 C 6,7 km/h (2 Bft)
30.04.2015 09:15 7,5 C 7,9 C 77 % 1016,2 hPa 0,0 mm 5,7 km/h (1 Bft) SW 225 3,7 C 7,3 km/h (2 Bft)
30.04.2015 09:20 7,6 C 8,1 C 76 % 1016,3 hPa 0,0 mm 6,2 km/h (2 Bft) S 180 3,6 C 4,9 km/h (1 Bft)
30.04.2015 09:25 7,7 C 8,3 C 76 % 1016,3 hPa 0,0 mm 5,7 km/h (1 Bft) S 180 3,7 C 7,0 km/h (2 Bft)
30.04.2015 09:30 7,7 C 8,3 C 75 % 1016,3 hPa 0,0 mm 5,4 km/h (1 Bft) S 180 3,6 C 4,9 km/h (1 Bft)
30.04.2015 09:35 7,8 C 8,3 C 75 % 1016,3 hPa 0,0 mm 6,0 km/h (2 Bft) S 180 3,7 C 10,9 km/h (2 Bft)
30.04.2015 09:40 7,8 C 8,4 C 74 % 1016,3 hPa 0,0 mm 4,1 km/h (1 Bft) W 270 3,5 C 3,1 km/h (1 Bft)
30.04.2015 09:45 7,9 C 8,5 C 74 % 1016,3 hPa 0,0 mm 1,3 km/h (1 Bft) W-SW 247 3,6 C 3,1 km/h (1 Bft)
30.04.2015 09:50 7,9 C 8,5 C 74 % 1016,3 hPa 0,0 mm 0,8 km/h (0 Bft) W-SW 247 3,6 C 0,0 km/h (0 Bft)
30.04.2015 09:55 7,9 C 8,4 C 74 % 1016,3 hPa 0,0 mm 0,5 km/h (0 Bft) W 270 3,6 C 0,0 km/h (0 Bft)
30.04.2015 10:00 7,8 C 8,3 C 74 % 1016,2 hPa 0,0 mm 0,8 km/h (0 Bft) S 180 3,5 C 0,0 km/h (0 Bft)
30.04.2015 10:05 7,9 C 8,4 C 74 % 1016,2 hPa 0,0 mm 0,8 km/h (0 Bft) W-NW 292 3,6 C 5,4 km/h (1 Bft)
30.04.2015 10:10 8,0 C 8,6 C 73 % 1016,2 hPa 0,0 mm 1,0 km/h (0 Bft) SW 225 3,5 C 3,6 km/h (1 Bft)
30.04.2015 10:15 8,1 C 8,8 C 73 % 1016,2 hPa 0,0 mm 1,3 km/h (1 Bft) SW 225 3,6 C 5,4 km/h (1 Bft)
30.04.2015 10:20 8,1 C 8,9 C 73 % 1016,2 hPa 0,0 mm 0,8 km/h (0 Bft) W-SW 247 3,6 C 0,0 km/h (0 Bft)
30.04.2015 10:25 8,2 C 9,0 C 73 % 1016,2 hPa 0,0 mm 1,3 km/h (1 Bft) W 270 3,7 C 5,2 km/h (1 Bft)
30.04.2015 10:30 8,2 C 9,0 C 73 % 1016,2 hPa 0,0 mm 1,6 km/h (1 Bft) W 270 3,7 C 0,0 km/h (0 Bft)
30.04.2015 10:35 8,3 C 9,0 C 73 % 1016,2 hPa 0,0 mm 2,3 km/h (1 Bft) W 270 3,8 C 3,1 km/h (1 Bft)
30.04.2015 10:40 8,3 C 9,1 C 73 % 1016,3 hPa 0,0 mm 2,1 km/h (1 Bft) W-NW 292 3,8 C 0,0 km/h (0 Bft)
30.04.2015 10:45 8,4 C 9,3 C 73 % 1016,3 hPa 0,0 mm 2,3 km/h (1 Bft) W-SW 247 3,8 C 10,4 km/h (2 Bft)
30.04.2015 10:50 8,4 C 9,5 C 72 % 1016,3 hPa 0,0 mm 3,9 km/h (1 Bft) W 270 3,7 C 8,5 km/h (2 Bft)
30.04.2015 10:55 8,7 C 9,8 C 72 % 1016,3 hPa 0,0 mm 5,7 km/h (1 Bft) S 180 3,9 C 2,8 km/h (1 Bft)
30.04.2015 11:00 8,8 C 10,2 C 71 % 1016,4 hPa 0,0 mm 5,4 km/h (1 Bft) W-SW 247 3,8 C 6,5 km/h (2 Bft)
30.04.2015 11:05 8,9 C 10,4 C 71 % 1016,4 hPa 0,0 mm 5,7 km/h (1 Bft) W-NW 292 3,9 C 8,8 km/h (2 Bft)
30.04.2015 11:10 9,0 C 10,6 C 70 % 1016,4 hPa 0,0 mm 6,2 km/h (2 Bft) SW 225 3,8 C 5,7 km/h (1 Bft)
30.04.2015 11:15 9,1 C 10,8 C 69 % 1016,4 hPa 0,0 mm 7,8 km/h (2 Bft) NW 315 3,7 C 10,6 km/h (2 Bft)
30.04.2015 11:20 9,3 C 11,3 C 69 % 1016,4 hPa 0,0 mm 7,5 km/h (2 Bft) W 270 3,9 C 12,2 km/h (2 Bft)
30.04.2015 11:25 9,7 C 12,7 C 68 % 1016,4 hPa 0,0 mm 7,0 km/h (2 Bft) W 270 4,1 C 7,0 km/h (2 Bft)
30.04.2015 11:30 9,8 C 13,2 C 67 % 1016,4 hPa 0,0 mm 7,5 km/h (2 Bft) W 270 4,0 C 4,9 km/h (1 Bft)
30.04.2015 11:35 9,6 C 12,7 C 66 % 1016,4 hPa 0,0 mm 7,3 km/h (2 Bft) S-SW 202 3,6 C 9,8 km/h (2 Bft)
30.04.2015 11:40 10,0 C 12,7 C 66 % 1016,2 hPa 0,0 mm 6,2 km/h (2 Bft) W-SW 247 3,9 C 7,8 km/h (2 Bft)
30.04.2015 11:45 11,1 C 15,1 C 65 % 1016,2 hPa 0,0 mm 6,7 km/h (2 Bft) SW 225 4,8 C 8,0 km/h (2 Bft)
30.04.2015 11:50 11,1 C 16,0 C 63 % 1016,2 hPa 0,0 mm 6,7 km/h (2 Bft) W 270 4,3 C 13,5 km/h (3 Bft)
30.04.2015 11:55 10,5 C 15,9 C 62 % 1016,2 hPa 0,0 mm 7,3 km/h (2 Bft) W 270 3,5 C 16,6 km/h (3 Bft)
30.04.2015 12:00 10,4 C 14,1 C 61 % 1016,3 hPa 0,0 mm 8,3 km/h (2 Bft) W-SW 247 3,2 C 7,5 km/h (2 Bft)
30.04.2015 12:05 11,3 C 15,5 C 60 % 1016,3 hPa 0,0 mm 9,1 km/h (2 Bft) W-SW 247 3,8 C 18,6 km/h (3 Bft)
30.04.2015 12:10 11,7 C 16,5 C 59 % 1016,3 hPa 0,0 mm 10,9 km/h (2 Bft) W-SW 247 4,0 C 11,7 km/h (2 Bft)
30.04.2015 12:15 12,1 C 17,3 C 58 % 1016,3 hPa 0,0 mm 11,9 km/h (2 Bft) W 270 4,1 C 17,9 km/h (3 Bft)
30.04.2015 12:20 12,0 C 17,1 C 58 % 1016,4 hPa 0,0 mm 10,1 km/h (2 Bft) W-NW 292 4,0 C 8,0 km/h (2 Bft)
30.04.2015 12:25 12,0 C 16,6 C 57 % 1016,4 hPa 0,0 mm 8,8 km/h (2 Bft) W 270 3,8 C 14,5 km/h (3 Bft)
30.04.2015 12:30 12,4 C 16,9 C 58 % 1016,4 hPa 0,0 mm 10,4 km/h (2 Bft) NW 315 4,4 C 16,8 km/h (3 Bft)
30.04.2015 12:35 11,8 C 16,3 C 58 % 1016,4 hPa 0,0 mm 10,6 km/h (2 Bft) W-SW 247 3,8 C 16,1 km/h (3 Bft)
30.04.2015 12:40 11,5 C 14,8 C 57 % 1016,4 hPa 0,0 mm 8,5 km/h (2 Bft) W-NW 292 3,3 C 11,9 km/h (2 Bft)
30.04.2015 12:45 12,0 C 15,8 C 56 % 1016,4 hPa 0,0 mm 9,3 km/h (2 Bft) W-NW 292 3,5 C 17,1 km/h (3 Bft)
30.04.2015 12:50 12,1 C 15,3 C 56 % 1016,4 hPa 0,0 mm 10,1 km/h (2 Bft) W-NW 292 3,6 C 10,4 km/h (2 Bft)
30.04.2015 12:55 12,0 C 15,1 C 55 % 1016,4 hPa 0,0 mm 10,9 km/h (2 Bft) W-SW 247 3,2 C 6,0 km/h (2 Bft)
30.04.2015 13:00 12,4 C 15,7 C 55 % 1016,1 hPa 0,0 mm 10,9 km/h (2 Bft) NO 45 3,6 C 15,8 km/h (3 Bft)
30.04.2015 13:05 12,8 C 16,4 C 55 % 1016,1 hPa 0,0 mm 9,6 km/h (2 Bft) W-NW 292 4,0 C 7,5 km/h (2 Bft)
30.04.2015 13:10 13,0 C 16,6 C 53 % 1016,1 hPa 0,0 mm 9,1 km/h (2 Bft) NW 315 3,6 C 9,8 km/h (2 Bft)
30.04.2015 13:15 13,0 C 16,5 C 51 % 1016,1 hPa 0,0 mm 8,8 km/h (2 Bft) S 180 3,1 C 12,9 km/h (3 Bft)
30.04.2015 13:20 13,6 C 16,2 C 53 % 1015,9 hPa 0,0 mm 6,2 km/h (2 Bft) SW 225 4,2 C 6,0 km/h (2 Bft)
30.04.2015 13:25 13,5 C 16,7 C 50 % 1015,9 hPa 0,0 mm 6,5 km/h (2 Bft) W-SW 247 3,3 C 7,0 km/h (2 Bft)
30.04.2015 13:30 13,5 C 16,7 C 51 % 1015,9 hPa 0,0 mm 7,8 km/h (2 Bft) W 270 3,6 C 16,1 km/h (3 Bft)
30.04.2015 13:35 13,9 C 17,5 C 49 % 1015,9 hPa 0,0 mm 8,5 km/h (2 Bft) W 270 3,4 C 28,5 km/h (4 Bft)
30.04.2015 13:40 13,9 C 18,2 C 50 % 1015,8 hPa 0,0 mm 9,6 km/h (2 Bft) NW 315 3,7 C 12,7 km/h (3 Bft)
30.04.2015 13:45 13,2 C 17,0 C 49 % 1015,8 hPa 0,0 mm 9,1 km/h (2 Bft) W-SW 247 2,7 C 8,3 km/h (2 Bft)
30.04.2015 13:50 13,1 C 16,4 C 49 % 1015,8 hPa 0,0 mm 10,1 km/h (2 Bft) NW 315 2,6 C 21,2 km/h (4 Bft)
30.04.2015 13:55 13,4 C 16,2 C 49 % 1015,8 hPa 0,0 mm 10,6 km/h (2 Bft) W-NW 292 2,9 C 6,2 km/h (2 Bft)
30.04.2015 14:00 13,2 C 16,2 C 49 % 1015,6 hPa 0,0 mm 11,9 km/h (2 Bft) NW 315 2,7 C 16,1 km/h (3 Bft)
30.04.2015 14:05 13,5 C 16,0 C 48 % 1015,6 hPa 0,0 mm 11,9 km/h (2 Bft) W-NW 292 2,7 C 8,8 km/h (2 Bft)
30.04.2015 14:10 14,0 C 17,0 C 49 % 1015,6 hPa 0,0 mm 11,4 km/h (2 Bft) W 270 3,5 C 11,7 km/h (2 Bft)
30.04.2015 14:15 14,2 C 17,9 C 48 % 1015,6 hPa 0,0 mm 9,1 km/h (2 Bft) NW 315 3,4 C 7,3 km/h (2 Bft)
30.04.2015 14:20 13,5 C 17,8 C 47 % 1015,1 hPa 0,0 mm 8,0 km/h (2 Bft) N-NW 337 2,4 C 11,7 km/h (2 Bft)
30.04.2015 14:25 13,8 C 17,3 C 48 % 1015,1 hPa 0,0 mm 7,5 km/h (2 Bft) SW 225 3,0 C 10,6 km/h (2 Bft)
30.04.2015 14:30 14,0 C 17,7 C 47 % 1015,1 hPa 0,0 mm 9,6 km/h (2 Bft) W-NW 292 2,9 C 15,8 km/h (3 Bft)
30.04.2015 14:35 14,1 C 17,9 C 46 % 1015,1 hPa 0,0 mm 11,1 km/h (2 Bft) W-NW 292 2,7 C 29,8 km/h (5 Bft)
30.04.2015 14:40 14,1 C 17,2 C 47 % 1014,6 hPa 0,0 mm 11,4 km/h (2 Bft) W-NW 292 3,0 C 0,0 km/h (0 Bft)
30.04.2015 14:45 14,8 C 18,6 C 48 % 1014,6 hPa 0,0 mm 6,7 km/h (2 Bft) W 270 3,9 C 14,5 km/h (3 Bft)
30.04.2015 14:50 14,6 C 18,5 C 47 % 1014,6 hPa 0,0 mm 6,7 km/h (2 Bft) S-SW 202 3,4 C 18,4 km/h (3 Bft)
30.04.2015 14:55 14,9 C 18,5 C 46 % 1014,6 hPa 0,0 mm 7,8 km/h (2 Bft) W-SW 247 3,4 C 6,7 km/h (2 Bft)
30.04.2015 15:00 14,1 C 18,6 C 45 % 1014,4 hPa 0,0 mm 4,4 km/h (1 Bft) NW 315 2,4 C 3,4 km/h (1 Bft)
30.04.2015 15:05 14,2 C 17,9 C 47 % 1014,4 hPa 0,0 mm 3,9 km/h (1 Bft) NW 315 3,1 C 11,7 km/h (2 Bft)
30.04.2015 15:10 14,1 C 17,0 C 46 % 1014,4 hPa 0,0 mm 6,0 km/h (2 Bft) N-NW 337 2,7 C 8,0 km/h (2 Bft)
30.04.2015 15:15 14,0 C 16,8 C 46 % 1014,4 hPa 0,0 mm 8,3 km/h (2 Bft) NW 315 2,6 C 16,1 km/h (3 Bft)
30.04.2015 15:20 14,3 C 16,6 C 47 % 1014,0 hPa 0,0 mm 7,5 km/h (2 Bft) W-SW 247 3,1 C 5,2 km/h (1 Bft)
30.04.2015 15:25 14,6 C 17,9 C 46 % 1014,0 hPa 0,0 mm 7,3 km/h (2 Bft) NW 315 3,1 C 17,6 km/h (3 Bft)
30.04.2015 15:30 14,5 C 18,1 C 46 % 1014,0 hPa 0,0 mm 9,1 km/h (2 Bft) W-NW 292 3,0 C 7,5 km/h (2 Bft)
30.04.2015 15:35 14,3 C 18,1 C 44 % 1014,0 hPa 0,0 mm 10,4 km/h (2 Bft) N-NW 337 2,2 C 7,3 km/h (2 Bft)
30.04.2015 15:40 14,0 C 17,6 C 43 % 1013,8 hPa 0,0 mm 7,0 km/h (2 Bft) N 360 1,6 C 6,2 km/h (2 Bft)
30.04.2015 15:45 14,2 C 18,0 C 45 % 1013,8 hPa 0,0 mm 3,4 km/h (1 Bft) NW 315 2,4 C 6,0 km/h (2 Bft)
30.04.2015 15:50 14,3 C 18,0 C 45 % 1013,8 hPa 0,0 mm 3,9 km/h (1 Bft) NW 315 2,5 C 4,1 km/h (1 Bft)
30.04.2015 15:55 14,6 C 18,3 C 46 % 1013,8 hPa 0,0 mm 6,2 km/h (2 Bft) W-NW 292 3,1 C 9,1 km/h (2 Bft)
30.04.2015 16:00 14,6 C 18,1 C 46 % 1013,5 hPa 0,0 mm 8,3 km/h (2 Bft) W-NW 292 3,1 C 4,1 km/h (1 Bft)
30.04.2015 16:05 14,4 C 17,9 C 45 % 1013,5 hPa 0,0 mm 8,8 km/h (2 Bft) NW 315 2,6 C 5,7 km/h (1 Bft)
30.04.2015 16:10 14,5 C 18,2 C 46 % 1013,5 hPa 0,0 mm 8,3 km/h (2 Bft) NW 315 3,0 C 5,7 km/h (1 Bft)
30.04.2015 16:15 14,4 C 18,7 C 44 % 1013,5 hPa 0,0 mm 8,3 km/h (2 Bft) NW 315 2,3 C 10,6 km/h (2 Bft)
30.04.2015 16:20 14,2 C 18,3 C 45 % 1013,4 hPa 0,0 mm 8,8 km/h (2 Bft) N-NW 337 2,4 C 11,9 km/h (2 Bft)
30.04.2015 16:25 14,0 C 17,8 C 45 % 1013,4 hPa 0,0 mm 7,0 km/h (2 Bft) N-NW 337 2,3 C 0,0 km/h (0 Bft)
30.04.2015 16:30 14,0 C 17,9 C 45 % 1013,4 hPa 0,0 mm 5,2 km/h (1 Bft) N-NW 337 2,3 C 7,8 km/h (2 Bft)
30.04.2015 16:35 13,9 C 17,8 C 45 % 1013,4 hPa 0,0 mm 4,9 km/h (1 Bft) O-NO 67 2,2 C 2,8 km/h (1 Bft)
30.04.2015 16:40 13,8 C 17,6 C 45 % 1013,2 hPa 0,0 mm 5,2 km/h (1 Bft) O-SO 112 2,1 C 0,0 km/h (0 Bft)
30.04.2015 16:45 13,8 C 18,1 C 45 % 1013,2 hPa 0,0 mm 2,6 km/h (1 Bft) W 270 2,1 C 0,0 km/h (0 Bft)
30.04.2015 16:50 13,9 C 18,1 C 46 % 1013,2 hPa 0,0 mm 1,8 km/h (1 Bft) NO 45 2,5 C 6,0 km/h (2 Bft)
30.04.2015 16:55 13,7 C 17,7 C 45 % 1013,2 hPa 0,0 mm 3,6 km/h (1 Bft) N-NO 22 2,0 C 5,7 km/h (1 Bft)
30.04.2015 17:00 13,7 C 17,2 C 45 % 1013,4 hPa 0,0 mm 3,4 km/h (1 Bft) N-NW 337 2,0 C 0,0 km/h (0 Bft)
30.04.2015 17:05 13,8 C 17,1 C 45 % 1013,4 hPa 0,0 mm 2,6 km/h (1 Bft) O-NO 67 2,1 C 0,0 km/h (0 Bft)
30.04.2015 17:10 13,7 C 16,9 C 46 % 1013,4 hPa 0,0 mm 3,1 km/h (1 Bft) N-NW 337 2,3 C 8,5 km/h (2 Bft)
30.04.2015 17:11 13,9 C 16,7 C 46 % 1013,4 hPa 0,0 mm 4,1 km/h (1 Bft) N-NW 337 2,5 C 4,4 km/h (1 Bft)
30.04.2015 17:16 13,8 C 16,5 C 46 % 1013,2 hPa 0,0 mm 3,9 km/h (1 Bft) N-NO 22 2,4 C 9,8 km/h (2 Bft)
30.04.2015 17:21 13,7 C 16,0 C 46 % 1013,2 hPa 0,0 mm 6,0 km/h (2 Bft) NW 315 2,3 C 10,9 km/h (2 Bft)
30.04.2015 17:30 13,7 C 15,5 C 46 % 1013,2 hPa 0,0 mm 7,3 km/h (2 Bft) NO 45 2,3 C 8,5 km/h (2 Bft)
30.04.2015 17:35 13,6 C 15,3 C 46 % 1013,2 hPa 0,0 mm 7,3 km/h (2 Bft) NO 45 2,2 C 4,7 km/h (1 Bft)
30.04.2015 17:40 13,5 C 14,9 C 46 % 1013,4 hPa 0,0 mm 7,0 km/h (2 Bft) N 360 2,1 C 8,0 km/h (2 Bft)
30.04.2015 17:45 13,4 C 14,5 C 46 % 1013,4 hPa 0,0 mm 6,5 km/h (2 Bft) N 360 2,0 C 3,6 km/h (1 Bft)
30.04.2015 17:50 13,3 C 14,6 C 47 % 1013,4 hPa 0,0 mm 4,7 km/h (1 Bft) NW 315 2,2 C 5,4 km/h (1 Bft)
30.04.2015 17:55 13,4 C 14,8 C 47 % 1013,4 hPa 0,0 mm 2,6 km/h (1 Bft) W-NW 292 2,3 C 2,8 km/h (1 Bft)
30.04.2015 18:00 13,3 C 14,8 C 47 % 1013,2 hPa 0,0 mm 2,1 km/h (1 Bft) O 90 2,2 C 0,0 km/h (0 Bft)
30.04.2015 18:05 13,1 C 14,7 C 47 % 1013,2 hPa 0,0 mm 2,8 km/h (1 Bft) NO 45 2,0 C 3,4 km/h (1 Bft)
30.04.2015 18:10 13,1 C 14,5 C 47 % 1013,2 hPa 0,0 mm 3,9 km/h (1 Bft) NW 315 2,0 C 4,4 km/h (1 Bft)
30.04.2015 18:15 13,1 C 14,3 C 47 % 1013,2 hPa 0,0 mm 3,9 km/h (1 Bft) O-NO 67 2,0 C 7,0 km/h (2 Bft)
30.04.2015 18:20 13,1 C 14,2 C 47 % 1013,0 hPa 0,0 mm 2,8 km/h (1 Bft) NO 45 2,0 C 6,0 km/h (2 Bft)
30.04.2015 18:25 13,0 C 14,2 C 48 % 1013,0 hPa 0,0 mm 1,6 km/h (1 Bft) NO 45 2,3 C 4,9 km/h (1 Bft)
30.04.2015 18:30 13,0 C 14,1 C 48 % 1013,0 hPa 0,0 mm 2,6 km/h (1 Bft) O-NO 67 2,3 C 5,4 km/h (1 Bft)
30.04.2015 18:35 12,9 C 13,9 C 49 % 1013,0 hPa 0,0 mm 4,9 km/h (1 Bft) O-NO 67 2,5 C 5,7 km/h (1 Bft)
30.04.2015 18:40 12,8 C 13,5 C 49 % 1012,6 hPa 0,0 mm 4,9 km/h (1 Bft) NO 45 2,4 C 5,7 km/h (1 Bft)
30.04.2015 18:45 12,6 C 13,2 C 51 % 1012,6 hPa 0,0 mm 2,3 km/h (1 Bft) SO 135 2,7 C 0,0 km/h (0 Bft)
30.04.2015 18:50 12,5 C 13,1 C 51 % 1012,6 hPa 0,0 mm 1,6 km/h (1 Bft) O-SO 112 2,6 C 2,6 km/h (1 Bft)
30.04.2015 18:55 12,3 C 13,0 C 52 % 1012,6 hPa 0,0 mm 0,8 km/h (0 Bft) S-SO 157 2,7 C 0,0 km/h (0 Bft)
30.04.2015 19:00 12,2 C 12,6 C 52 % 1012,9 hPa 0,0 mm 0,8 km/h (0 Bft) O 90 2,6 C 3,4 km/h (1 Bft)
30.04.2015 19:05 11,8 C 12,3 C 53 % 1012,9 hPa 0,0 mm 0,8 km/h (0 Bft) O-SO 112 2,5 C 0,0 km/h (0 Bft)
30.04.2015 19:10 11,6 C 12,1 C 54 % 1012,9 hPa 0,0 mm 0,5 km/h (0 Bft) O-SO 112 2,6 C 0,0 km/h (0 Bft)
30.04.2015 19:15 11,5 C 11,8 C 54 % 1012,9 hPa 0,0 mm 0,0 km/h (0 Bft) SO 135 2,5 C 0,0 km/h (0 Bft)
30.04.2015 19:21 11,4 C 11,6 C 55 % 1012,8 hPa 0,0 mm 0,0 km/h (0 Bft) O 90 2,7 C 0,0 km/h (0 Bft)
30.04.2015 19:25 11,3 C 11,5 C 55 % 1012,8 hPa 0,0 mm 0,0 km/h (0 Bft) SO 135 2,6 C 0,0 km/h (0 Bft)
30.04.2015 19:30 11,3 C 11,4 C 55 % 1012,8 hPa 0,0 mm 0,0 km/h (0 Bft) SO 135 2,6 C 0,0 km/h (0 Bft)
30.04.2015 19:35 11,3 C 11,3 C 55 % 1012,8 hPa 0,0 mm 0,0 km/h (0 Bft) SO 135 2,6 C 0,0 km/h (0 Bft)
30.04.2015 19:40 11,1 C 11,2 C 56 % 1012,5 hPa 0,0 mm 0,0 km/h (0 Bft) NO 45 2,7 C 0,0 km/h (0 Bft)
30.04.2015 19:45 11,1 C 11,2 C 56 % 1012,5 hPa 0,0 mm 0,5 km/h (0 Bft) NW 315 2,7 C 4,9 km/h (1 Bft)
30.04.2015 19:50 11,2 C 11,1 C 56 % 1012,5 hPa 0,0 mm 1,6 km/h (1 Bft) NW 315 2,8 C 5,4 km/h (1 Bft)
30.04.2015 19:55 10,9 C 11,0 C 56 % 1012,5 hPa 0,0 mm 2,1 km/h (1 Bft) W 270 2,5 C 0,0 km/h (0 Bft)
30.04.2015 20:00 10,9 C 10,9 C 57 % 1012,8 hPa 0,0 mm 1,0 km/h (0 Bft) W 270 2,7 C 0,0 km/h (0 Bft)
30.04.2015 20:05 10,7 C 10,7 C 57 % 1012,8 hPa 0,0 mm 0,5 km/h (0 Bft) W 270 2,5 C 2,6 km/h (1 Bft)
30.04.2015 20:10 10,7 C 10,7 C 57 % 1012,8 hPa 0,0 mm 0,8 km/h (0 Bft) W 270 2,5 C 0,0 km/h (0 Bft)
30.04.2015 20:15 10,6 C 10,6 C 57 % 1012,8 hPa 0,0 mm 0,8 km/h (0 Bft) W 270 2,4 C 3,1 km/h (1 Bft)
30.04.2015 20:20 10,7 C 10,6 C 57 % 1013,0 hPa 0,0 mm 4,9 km/h (1 Bft) NW 315 2,5 C 8,5 km/h (2 Bft)
30.04.2015 20:25 10,5 C 10,4 C 57 % 1013,0 hPa 0,0 mm 9,6 km/h (2 Bft) W-NW 292 2,3 C 15,5 km/h (3 Bft)
30.04.2015 20:30 10,4 C 10,1 C 56 % 1013,0 hPa 0,0 mm 10,6 km/h (2 Bft) NW 315 2,0 C 10,9 km/h (2 Bft)
30.04.2015 20:35 9,9 C 9,5 C 57 % 1013,0 hPa 0,0 mm 11,9 km/h (2 Bft) W-SW 247 1,8 C 14,5 km/h (3 Bft)
30.04.2015 20:40 9,7 C 9,1 C 58 % 1013,6 hPa 0,0 mm 9,8 km/h (2 Bft) NW 315 1,8 C 8,3 km/h (2 Bft)
30.04.2015 20:45 9,2 C 8,7 C 58 % 1013,6 hPa 0,0 mm 6,0 km/h (2 Bft) SW 225 1,4 C 0,0 km/h (0 Bft)
30.04.2015 20:55 8,6 C 8,2 C 66 % 1013,6 hPa 0,0 mm 4,4 km/h (1 Bft) W 270 2,6 C 32,1 km/h (5 Bft)
30.04.2015 21:00 8,4 C 7,8 C 67 % 1013,8 hPa 0,0 mm 13,2 km/h (3 Bft) W 270 2,6 C 23,8 km/h (4 Bft)
30.04.2015 21:05 8,1 C 7,3 C 68 % 1013,8 hPa 0,0 mm 12,7 km/h (3 Bft) W-NW 292 2,6 C 8,0 km/h (2 Bft)
30.04.2015 21:10 8,0 C 7,3 C 68 % 1013,8 hPa 0,0 mm 8,5 km/h (2 Bft) W 270 2,5 C 7,8 km/h (2 Bft)
30.04.2015 21:15 7,8 C 7,3 C 69 % 1013,8 hPa 0,0 mm 6,5 km/h (2 Bft) W-SW 247 2,5 C 5,4 km/h (1 Bft)
30.04.2015 21:20 7,6 C 7,2 C 69 % 1013,9 hPa 0,0 mm 4,4 km/h (1 Bft) SW 225 2,3 C 2,8 km/h (1 Bft)
30.04.2015 21:25 7,5 C 7,1 C 70 % 1013,9 hPa 0,0 mm 3,6 km/h (1 Bft) W-SW 247 2,4 C 3,4 km/h (1 Bft)
30.04.2015 21:30 7,4 C 7,0 C 70 % 1013,9 hPa 0,0 mm 2,8 km/h (1 Bft) W-SW 247 2,3 C 5,2 km/h (1 Bft)
30.04.2015 21:35 7,3 C 6,9 C 71 % 1013,9 hPa 0,0 mm 2,8 km/h (1 Bft) W-SW 247 2,4 C 3,9 km/h (1 Bft)
30.04.2015 21:40 7,2 C 6,8 C 72 % 1014,1 hPa 0,0 mm 2,1 km/h (1 Bft) S 180 2,5 C 4,1 km/h (1 Bft)
30.04.2015 21:45 7,1 C 6,7 C 73 % 1014,1 hPa 0,0 mm 2,1 km/h (1 Bft) SW 225 2,6 C 4,4 km/h (1 Bft)
30.04.2015 21:50 7,0 C 6,7 C 74 % 1014,1 hPa 0,0 mm 2,6 km/h (1 Bft) S 180 2,7 C 5,2 km/h (1 Bft)
30.04.2015 21:55 7,0 C 6,6 C 74 % 1014,1 hPa 0,7 mm 3,6 km/h (1 Bft) W-SW 247 2,7 C 3,9 km/h (1 Bft)
30.04.2015 22:00 6,9 C 6,6 C 76 % 1013,9 hPa 0,0 mm 3,9 km/h (1 Bft) W-SW 247 3,0 C 5,4 km/h (1 Bft)
30.04.2015 22:05 6,9 C 6,6 C 76 % 1013,9 hPa 0,0 mm 3,4 km/h (1 Bft) W-SW 247 3,0 C 4,7 km/h (1 Bft)
30.04.2015 22:10 6,8 C 6,5 C 76 % 1013,9 hPa 0,0 mm 3,4 km/h (1 Bft) S 180 2,9 C 3,6 km/h (1 Bft)
30.04.2015 22:15 6,8 C 6,5 C 78 % 1013,9 hPa 0,0 mm 3,4 km/h (1 Bft) S-SW 202 3,2 C 7,3 km/h (2 Bft)
30.04.2015 22:20 6,7 C 6,4 C 78 % 1013,9 hPa 0,0 mm 3,4 km/h (1 Bft) S-SW 202 3,1 C 3,9 km/h (1 Bft)
30.04.2015 22:25 6,7 C 6,4 C 78 % 1013,9 hPa 0,0 mm 2,1 km/h (1 Bft) S-SW 202 3,1 C 0,0 km/h (0 Bft)
30.04.2015 22:30 6,6 C 6,4 C 78 % 1013,9 hPa 0,0 mm 1,3 km/h (1 Bft) SW 225 3,0 C 7,0 km/h (2 Bft)
30.04.2015 22:35 6,5 C 6,3 C 79 % 1013,9 hPa 0,0 mm 1,8 km/h (1 Bft) SW 225 3,1 C 6,0 km/h (2 Bft)
30.04.2015 22:40 6,5 C 6,3 C 79 % 1013,8 hPa 0,7 mm 4,7 km/h (1 Bft) S 180 3,1 C 7,3 km/h (2 Bft)
30.04.2015 22:45 6,5 C 6,3 C 80 % 1013,8 hPa 0,0 mm 2,6 km/h (1 Bft) W-SW 247 3,3 C 0,0 km/h (0 Bft)
30.04.2015 22:50 6,4 C 6,2 C 81 % 1013,8 hPa 0,0 mm 1,0 km/h (0 Bft) O-NO 67 3,4 C 0,0 km/h (0 Bft)
30.04.2015 22:55 6,4 C 6,2 C 82 % 1013,8 hPa 0,0 mm 0,0 km/h (0 Bft) NO 45 3,6 C 0,0 km/h (0 Bft)
30.04.2015 23:00 6,4 C 6,2 C 82 % 1013,7 hPa 0,0 mm 0,0 km/h (0 Bft) W 270 3,6 C 0,0 km/h (0 Bft)
30.04.2015 23:05 6,3 C 6,1 C 82 % 1013,7 hPa 0,0 mm 0,0 km/h (0 Bft) O 90 3,5 C 0,0 km/h (0 Bft)
30.04.2015 23:10 6,3 C 6,1 C 83 % 1013,7 hPa 0,0 mm 0,0 km/h (0 Bft) O-NO 67 3,6 C 0,0 km/h (0 Bft)
30.04.2015 23:15 6,2 C 6,0 C 83 % 1013,7 hPa 0,0 mm 0,0 km/h (0 Bft) O-NO 67 3,5 C 0,0 km/h (0 Bft)
30.04.2015 23:20 6,2 C 6,0 C 84 % 1013,3 hPa 0,0 mm 0,0 km/h (0 Bft) O 90 3,7 C 0,0 km/h (0 Bft)
30.04.2015 23:25 6,2 C 6,0 C 84 % 1013,3 hPa 0,0 mm 0,0 km/h (0 Bft) O-NO 67 3,7 C 0,0 km/h (0 Bft)
30.04.2015 23:30 6,1 C 5,9 C 85 % 1013,3 hPa 0,0 mm 0,0 km/h (0 Bft) NO 45 3,8 C 0,0 km/h (0 Bft)
30.04.2015 23:35 6,1 C 5,9 C 85 % 1013,3 hPa 0,0 mm 0,0 km/h (0 Bft) O-SO 112 3,8 C 0,0 km/h (0 Bft)
30.04.2015 23:40 6,1 C 5,9 C 85 % 1013,2 hPa 0,0 mm 0,0 km/h (0 Bft) NO 45 3,8 C 0,0 km/h (0 Bft)
30.04.2015 23:45 6,1 C 5,9 C 85 % 1013,2 hPa 0,0 mm 0,0 km/h (0 Bft) O-NO 67 3,8 C 0,0 km/h (0 Bft)
30.04.2015 23:50 6,1 C 5,9 C 85 % 1013,2 hPa 0,0 mm 0,0 km/h (0 Bft) N-NO 22 3,8 C 0,0 km/h (0 Bft)
30.04.2015 23:55 6,1 C 5,9 C 85 % 1013,2 hPa 0,0 mm 0,0 km/h (0 Bft) O-SO 112 3,8 C 0,0 km/h (0 Bft)
_ Min-Zeit 01:11 06:45 15:40 19:55 - 23:55 - - 01:11 23:55
Minimum _ 5,2 C 5,2 C 43 % 1012,5 hPa - 0,0 km/h (0 Bft) - - 1,3 C 0,0 km/h (0 Bft)
_ Max-Zeit 14:55 16:15 23:55 12:55 22:40 21:00 - - 11:45 20:55
Maximum _ 14,9 C 18,7 C 85 % 1016,4 hPa 0,7 mm 13,2 km/h
W (3 Bft)
- - 4,8 C 32,1 km/h
W (5 Bft)
Durchschnitt _ 9,3 C 10,3 C 66 % 1014,8 hPa #3,4 mm 5,0 km/h (1 Bft) W-SW - 3,0 C 6,7 km/h (2 Bft)